#timestamp,LO_Frequency,Hit,StdDev 
1604743215.7,286047011.7,N
1604743235.6,286047013.5,N
1604743255.4,286047013.6,N
1604743275.3,286047010.3,N
1604743295.1,286047009.2,N
1604743296.0,286047009.2,N
1604743315.8,286047008.6,N
1604743335.7,286047006.6,N
1604743355.5,286047007.9,N
1604743375.3,286047004.8,N
1604743395.2,286047007.0,N
1604743415.0,286047003.6,N
1604743415.9,286047003.6,N
1604743435.8,286047003.1,N
1604743455.6,286047003.7,N
1604743475.4,286047005.8,N
1604743495.3,286047003.5,N
1604743515.1,286046999.9,N
1604743535.8,286047001.9,N
1604743555.7,286047001.5,N
1604743575.5,286047001.3,N
1604743595.4,286047004.0,N
1604743615.2,286047001.5,N
1604743635.0,286047001.6,N
1604743635.9,286047001.6,N
1604743655.8,286047001.8,N
1604743675.6,286047002.6,N
1604743695.4,286047001.3,N
1604743715.3,286047001.5,N
1604743735.1,286047000.2,N
1604743755.9,286046999.9,N
1604743775.7,286046999.9,N
1604743795.5,286047000.5,N
1604743815.4,286046995.1,N
1604743835.2,286046997.9,N
1604743855.1,286046997.6,N
1604743856.0,286046997.6,N
1604743875.8,286046996.9,N
1604743895.6,286046995.3,N
1604743915.5,286046997.6,N
1604743935.3,286046996.9,N
1604743955.1,286046997.7,N
1604743975.9,286046997.0,N
1604743995.7,286046995.3,N
1604744015.6,286046993.4,N
1604744035.4,286046993.4,N
1604744055.2,286046996.4,N
1604744075.1,286046994.3,N
1604744076.0,286046994.3,N
1604744095.8,286046995.8,N
1604744115.6,286046995.4,N
1604744135.5,286046993.7,N
1604744155.3,286046994.6,N
1604744175.2,286046992.4,N
1604744195.9,286046992.9,N
1604744215.7,286046990.1,Y
1604744235.6,286046992.6,P
1604744255.4,286046992.8,P
1604744275.2,286046993.6,P
1604744295.1,286046994.2,Y
1604744296.0,286046994.2,P
1604744315.8,286046998.3,P
1604744335.7,286047000.2,N
1604744355.5,286047002.3,N
1604744375.3,286047001.0,N
1604744395.2,286046998.2,N
1604744415.0,286046998.6,N
1604744415.9,286046998.6,N
1604744435.7,286046999.2,N
1604744455.6,286046997.5,N
1604744475.4,286046998.4,N
1604744495.3,286046999.8,N
1604744515.1,286046999.3,N
1604744516.0,286046999.3,N
1604744535.8,286046998.6,N
1604744555.7,286046998.7,N
1604744575.5,286046996.6,N
1604744595.3,286046999.4,N
1604744615.2,286047000.9,N
1604744635.0,286046999.1,N
1604744635.9,286046999.1,N
1604744655.8,286047001.1,N
1604744675.6,286047000.0,N
1604744695.4,286047001.7,N
1604744715.3,286047000.8,N
1604744735.1,286047003.2,N
1604744755.8,286047004.0,N
1604744775.7,286047001.9,N
1604744795.5,286047005.8,N
1604744815.4,286047005.1,N
1604744835.2,286047008.7,Y
1604744855.0,286047006.4,P
1604744855.9,286047006.4,N
1604744875.8,286047009.4,P
1604744895.6,286047017.0,Y
1604744915.5,286047011.6,P
1604744935.3,286047014.7,P
1604744955.1,286047012.5,P
1604744975.9,286047012.7,Y
1604744995.7,286046996.7,P
1604745015.5,286046997.6,N
1604745035.4,286046992.3,N
1604745055.2,286046988.7,N
1604745075.1,286046991.0,N
1604745076.0,286046991.0,N
1604745095.8,286046990.7,N
1604745115.6,286046988.9,N
1604745135.5,286046988.7,N
1604745155.3,286046989.2,N
1604745175.1,286046991.4,N
1604745195.9,286046990.8,N
1604745215.7,286046991.3,N
1604745235.6,286046988.6,N
1604745255.4,286046987.3,N
1604745275.2,286046989.1,N
1604745295.1,286046987.2,N
1604745296.0,286046987.2,N
1604745315.8,286046987.7,N
1604745335.6,286046985.4,N
1604745355.5,286046986.5,N
1604745375.3,286046986.4,N
1604745395.2,286046982.4,Y
1604745415.9,286046990.3,P
1604745435.7,286046989.7,P
1604745455.6,286046986.0,P
1604745475.4,286046987.9,Y
1604745495.3,286047000.8,P
1604745515.1,286047001.5,N
1604745516.0,286047001.5,N
1604745535.8,286047003.1,N
1604745555.7,286047002.0,N
1604745575.5,286047003.5,N
1604745595.3,286047003.9,N
1604745615.2,286047002.6,N
1604745635.0,286047001.5,N
1604745635.9,286047001.5,N
1604745655.8,286047003.5,N
1604745675.6,286047004.1,N
1604745695.4,286047003.6,N
1604745715.3,286047002.8,N
1604745735.1,286047003.8,N
1604745755.9,286047004.9,N
1604745775.7,286047004.1,N
1604745795.5,286046999.9,N
1604745815.4,286047004.3,N
1604745835.2,286047003.6,N
1604745855.0,286047001.3,N
1604745855.9,286047001.3,N
1604745875.8,286047004.3,N
1604745895.6,286047004.7,N
1604745915.5,286047006.9,N
1604745935.3,286047007.5,N
1604745955.1,286047006.2,N
1604745975.9,286047005.3,N
1604745995.7,286047004.8,N
1604746015.5,286047004.8,N
1604746035.4,286047008.9,Y
1604746055.2,286047006.9,P
1604746075.1,286047009.3,P
1604746076.0,286047009.3,P
1604746095.8,286047013.0,Y
1604746115.6,286047007.9,P
1604746135.5,286047009.1,P
1604746155.3,286047009.2,P
1604746175.2,286047009.8,Y
1604746195.0,286047005.7,P
1604746195.9,286047005.7,P
1604746215.7,286047008.3,P
1604746235.6,286047012.2,Y
1604746255.4,286046999.8,P
1604746275.3,286047001.6,N
1604746295.1,286047000.4,N
1604746315.8,286047004.2,N
1604746335.7,286046996.5,N
1604746355.5,286046999.8,N
1604746375.3,286047000.0,N
1604746395.2,286047002.0,N
1604746415.0,286047002.1,N
1604746415.9,286047002.1,N
1604746435.8,286047005.1,N
1604746455.6,286047003.6,N
1604746475.4,286047002.6,N
1604746495.3,286046999.6,N
1604746515.1,286046996.7,N
1604746535.9,286047000.8,N
1604746555.7,286047001.0,N
1604746575.5,286046998.0,N
1604746595.4,286046992.1,Y
1604746615.2,286046990.5,P
1604746635.0,286046993.1,N
1604746635.9,286046993.1,N
1604746655.8,286046993.0,N
1604746675.6,286046991.6,N
1604746695.5,286046988.7,Y
1604746715.3,286046995.7,P
1604746735.1,286046996.4,P
1604746755.9,286046996.1,P
1604746775.7,286046991.7,Y
1604746795.5,286046997.2,P
